CZ-3B DEB, 40159

Orbit data source: Space-Track

CZ-3B DEB, 40159 is space debris in HEO originally from a launch on Sat, 04 Sep 2010 UTC launched from the Xichang Space Center, China (XSC). Debris objects in space refer to the collection of defunct objects orbiting the Earth. Examples of debris include non-operational satellites, rocket bodies, and fragments generated from explosions, collisions, or faulty payload assembly.

Loading next visibility...
CZ-3B DEB details
Identifier
40159, 2010-042L
Orbit
HEO
Last TLE update2 weeks ago
Origin
Flag of CNCASC (CN / PRC)
ManufacturerCALT
MissionSpacecraft
Bus & MotorUnknown
MassUnknown
Launch date (UTC)
2010-09-04 (14 years ago)
Launch vehicleUnknown
Launch site
Xichang Space Center, China (XSC)
Object type
Payload
Rocket body
Debris
Shape & HBRUnknown
Radar Cross SectionMedium (>0.1 m² and <1 m²)

Expand to show TLE details & history

TLE from 2 weeks ago
0 CZ-3B DEB
1 40159U 10042L   24325.99769251  .00000611  00000-0  10706-2 0  9994
2 40159  26.4157 225.0517 7121019 284.9312  11.7108  2.42561861105603
Epoch: 2024-11-20T23:56Z
Definitive object data (Epoch: 2024-11-20T23:56:40.632Z)
Latitude0.00057°
Longitude165.44648°
Altitude3,398.304 km
Speed8.031 km/s
True Right ascension15h 00m 24s
True Declination0° 00' 02"
Sunlit
Object was in daylight at TLE epoch
Visualization TLE readout
Latitude26.33549°
Longitude-104.74511°
Altitude28,764.22 km
Speed2.377 km/s
Apparent Right ascension20h 26m 49s
Apparent Declination21° 28' 47"
Sunlit
Object is in daylight
Visualization observer readout
Local Sidereal Time00:53:10
Azimuth272.924° WNW
Elevation31.233°
Doppler factor1
Orbital elements
Apogee altitude33,688.943 km
Perigee altitude359.334 km
Semi-major axis23,402.275 km
Eccentricity0.7121019
Inclination26.4157°
RAAN225.0517°
Arg. of periapsis284.9312°
True anomaly75.56779°
Mean anomaly11.7108°
Eccentric anomaly35.27049°
Mean motion0.60626 °/min
BSTAR0.0010706
Orbital period593.81 mins
Loading maneuver chart data...
Loading historical data...
Loading historical data...
Loading historical data...
Loading historical data...
Loading historical data...
Loading historical data...
Loading historical data...

CZ-3B DEB Visibility forecast

Observer location: undefined°, undefined

Span
Click to sort rows by Start time (UTC) header in descending order
Start Az.
Max El. time (UTC)
Max El. Az.
Max El.
End time (UTC)
End Az.
247 mins2024-12-05 02:56:01.420Z272.902° WNW2024-12-05 02:56:01.420Z272.902° WNW27.403°2024-12-05 07:03:01.420Z277.43° WNW
402 mins2024-12-05 20:14:01.420Z233.839° WSW2024-12-05 23:11:01.420Z169.542° S43.716°2024-12-06 02:56:01.420Z216.946° SW
|